Date,Time,Wetness (Wet Dry or Ice),Wind Speed (m/s),Temperature (C),Humidity (%),Pressure (mb),Radiation (W/m^2)
2019-01-25,00:25:00,DRY,3.35,2.70,50.0,770.00,1.5
2019-01-25,00:30:00,DRY,4.00,3.13,33.7,770.00,1.0
2019-01-25,00:35:00,DRY,3.20,3.85,27.5,770.00,1.1
2019-01-25,00:40:00,DRY,4.20,4.13,24.3,770.00,1.1
2019-01-25,00:45:00,DRY,2.30,4.30,21.0,770.00,1.0
2019-01-25,00:50:00,DRY,2.97,4.40,20.3,770.00,1.4
2019-01-25,00:55:00,DRY,3.20,4.35,22.5,770.00,1.2
2019-01-25,01:00:00,DRY,3.53,3.93,26.3,770.00,0.9
2019-01-25,01:05:00,DRY,1.45,3.35,29.5,770.00,1.2
2019-01-25,01:10:00,DRY,2.07,3.17,31.3,770.00,1.6
2019-01-25,01:15:00,DRY,2.35,3.40,35.0,770.00,1.3
2019-01-25,01:20:00,DRY,3.87,3.57,32.0,770.00,1.3
2019-01-25,01:25:00,DRY,1.95,4.30,27.5,770.00,1.7
2019-01-25,01:30:00,DRY,1.87,4.53,25.7,770.00,0.9
2019-01-25,01:35:00,DRY,3.10,4.50,28.0,770.00,1.2
2019-01-25,01:40:00,DRY,3.57,4.57,27.0,769.67,1.0
2019-01-25,01:45:00,DRY,3.95,4.65,28.5,769.50,1.1
2019-01-25,01:50:00,DRY,2.47,4.67,29.7,770.00,0.7
2019-01-25,01:55:00,DRY,3.20,4.85,29.5,769.00,1.0
2019-01-25,02:00:00,DRY,4.23,4.67,29.3,769.33,1.4
2019-01-25,02:05:00,DRY,5.40,4.65,31.0,769.00,1.0
2019-01-25,02:10:00,DRY,3.37,4.27,31.0,769.33,0.7
2019-01-25,02:15:00,DRY,2.50,4.35,31.0,769.00,1.1
2019-01-25,02:20:00,DRY,3.20,4.70,32.0,769.00,1.4
2019-01-25,02:25:00,DRY,4.65,4.80,33.0,769.00,0.7
2019-01-25,02:30:00,DRY,3.43,5.20,32.0,769.33,0.9
2019-01-25,02:35:00,DRY,2.80,4.70,34.0,769.50,0.7
2019-01-25,02:40:00,DRY,1.87,4.67,34.3,769.67,1.2
2019-01-25,02:45:00,DRY,1.70,4.70,34.5,770.00,0.9
2019-01-25,02:50:00,DRY,1.47,5.13,34.3,770.00,0.4
2019-01-25,02:55:00,DRY,0.95,4.80,39.5,770.00,1.9
2019-01-25,03:00:00,DRY,2.20,4.53,40.3,770.00,0.7
2019-01-25,03:05:00,DRY,2.30,4.60,39.5,769.00,0.6
2019-01-25,03:10:00,DRY,2.00,5.03,39.7,770.00,0.9
2019-01-25,03:15:00,DRY,1.45,4.75,40.5,770.00,1.1
2019-01-25,03:20:00,DRY,1.30,4.80,39.3,770.00,0.2
2019-01-25,03:25:00,DRY,2.15,4.70,40.0,770.00,0.5
2019-01-25,03:30:00,DRY,1.70,4.53,40.0,769.67,1.4
2019-01-25,03:35:00,DRY,0.75,4.55,41.0,770.00,1.0
2019-01-25,03:40:00,DRY,1.00,4.95,39.5,770.00,0.8
2019-01-25,03:45:00,DRY,2.35,4.60,42.0,770.00,1.3
2019-01-25,03:50:00,DRY,2.23,4.63,44.7,770.00,1.3
2019-01-25,03:55:00,DRY,3.60,4.50,45.5,770.00,2.0
2019-01-25,04:00:00,DRY,2.77,4.43,47.3,769.33,1.8
2019-01-25,04:05:00,DRY,2.65,4.40,47.5,769.00,1.1
2019-01-25,04:10:00,DRY,3.17,4.37,52.0,769.67,1.3
2019-01-25,04:15:00,DRY,3.10,4.45,46.5,769.00,1.1
2019-01-25,04:20:00,DRY,2.87,4.80,44.3,769.33,1.1
2019-01-25,04:25:00,DRY,2.85,4.50,46.5,769.50,0.7
2019-01-25,04:30:00,DRY,1.87,4.60,45.3,769.67,1.2
2019-01-25,04:35:00,DRY,3.65,4.40,54.0,769.00,0.9
2019-01-25,04:40:00,DRY,2.83,4.03,56.0,769.00,1.3
2019-01-25,04:45:00,DRY,3.00,4.10,57.0,769.50,0.8
2019-01-25,04:50:00,DRY,3.93,4.03,57.0,769.00,1.2
2019-01-25,04:55:00,DRY,3.70,4.00,57.0,769.00,1.1
2019-01-25,05:00:00,DRY,3.50,3.57,59.0,769.00,1.5
2019-01-25,05:05:00,DRY,3.60,3.35,60.5,769.00,0.7
2019-01-25,05:10:00,DRY,3.40,3.27,62.3,769.00,1.5
2019-01-25,05:15:00,DRY,3.35,3.05,62.5,769.00,1.4
2019-01-25,05:20:00,DRY,2.47,3.03,62.0,769.00,0.9
2019-01-25,05:25:00,DRY,1.05,3.05,62.0,769.00,0.9
2019-01-25,05:30:00,DRY,2.80,3.40,59.3,769.00,1.0
2019-01-25,05:35:00,DRY,5.00,3.40,59.0,769.00,1.2
2019-01-25,05:40:00,DRY,1.80,3.63,56.7,769.00,1.0
2019-01-25,05:45:00,DRY,1.60,3.75,54.5,769.00,1.3
2019-01-25,05:50:00,DRY,1.60,3.83,53.7,769.00,1.8
2019-01-25,05:55:00,DRY,1.75,3.85,53.5,769.00,1.0
2019-01-25,06:00:00,DRY,3.10,3.87,53.7,769.00,0.9
2019-01-25,06:05:00,DRY,3.15,4.05,52.5,769.00,1.4
2019-01-25,06:10:00,DRY,2.07,3.93,52.7,769.00,1.4
2019-01-25,06:15:00,DRY,1.05,3.85,53.0,769.00,2.5
2019-01-25,06:20:00,DRY,2.10,3.83,52.7,769.00,1.2
2019-01-25,06:25:00,DRY,1.90,3.65,53.0,769.00,1.0
2019-01-25,06:30:00,DRY,2.93,3.73,52.3,769.00,1.6
2019-01-25,06:35:00,DRY,2.45,3.90,51.5,769.00,1.7
2019-01-25,06:40:00,DRY,2.20,4.07,51.0,769.00,1.4
2019-01-25,06:45:00,DRY,1.80,3.90,52.0,769.00,2.0
2019-01-25,06:50:00,DRY,1.97,3.80,52.3,769.00,1.0
2019-01-25,06:55:00,DRY,2.20,3.65,53.5,769.00,1.3
2019-01-25,07:00:00,DRY,2.23,3.57,53.3,769.00,1.6
2019-01-25,07:05:00,DRY,1.90,3.65,49.0,769.00,1.1
2019-01-25,07:10:00,DRY,1.50,3.70,45.7,769.33,1.2
2019-01-25,07:15:00,DRY,2.30,3.80,48.5,769.00,1.1
2019-01-25,07:20:00,DRY,2.40,4.20,48.3,770.00,1.6
2019-01-25,07:25:00,DRY,3.05,4.20,45.0,770.00,0.8
2019-01-25,07:30:00,DRY,2.30,3.83,41.7,769.67,1.3
2019-01-25,07:35:00,DRY,2.95,3.70,38.5,770.00,0.6
2019-01-25,07:40:00,DRY,3.20,3.67,40.7,769.67,0.9
2019-01-25,07:45:00,DRY,4.60,3.60,45.0,770.00,1.6
2019-01-25,07:50:00,DRY,2.47,3.57,38.3,770.00,2.3
2019-01-25,07:55:00,DRY,3.10,3.40,35.0,770.00,3.6
2019-01-25,08:00:00,DRY,3.10,3.57,41.3,770.00,5.4
2019-01-25,08:05:00,DRY,2.60,3.65,44.0,770.00,7.0
2019-01-25,08:10:00,DRY,2.30,3.77,42.0,770.00,10.1
2019-01-25,08:15:00,DRY,2.30,3.80,40.5,770.00,12.4
2019-01-25,08:20:00,DRY,2.20,3.80,42.0,770.00,13.2
2019-01-25,08:25:00,DRY,3.40,3.70,36.0,770.00,15.6
2019-01-25,08:30:00,DRY,1.90,3.73,36.0,770.00,18.9
2019-01-25,08:35:00,DRY,1.95,3.80,39.0,770.00,20.1
2019-01-25,08:40:00,DRY,2.37,4.43,43.3,770.00,81.5
2019-01-25,08:45:00,DRY,2.20,5.05,43.5,770.00,155.5
2019-01-25,08:50:00,DRY,1.93,5.30,41.3,770.00,174.4
2019-01-25,08:55:00,DRY,2.05,5.30,41.0,770.00,194.1
2019-01-25,09:00:00,DRY,2.30,5.25,41.0,770.00,214.2
2019-01-25,09:05:00,DRY,1.40,5.05,41.5,770.00,232.1
2019-01-25,09:10:00,DRY,1.97,5.03,40.7,770.00,251.9
2019-01-25,09:15:00,DRY,2.30,5.00,40.5,770.00,271.6
2019-01-25,09:20:00,DRY,2.13,5.17,41.0,770.00,291.2
2019-01-25,09:25:00,DRY,2.85,5.25,40.0,770.00,310.9
2019-01-25,09:30:00,DRY,1.53,5.30,40.7,770.00,329.8
2019-01-25,09:35:00,DRY,1.10,5.55,40.5,770.00,347.0
2019-01-25,09:40:00,DRY,1.70,5.73,40.3,770.00,365.4
2019-01-25,09:45:00,DRY,1.85,6.20,39.5,770.00,384.4
2019-01-25,09:50:00,DRY,1.80,6.30,39.0,770.00,402.6
2019-01-25,09:55:00,DRY,1.25,6.40,39.0,770.00,419.8
2019-01-25,10:00:00,DRY,1.03,6.70,38.3,770.00,439.8
2019-01-25,10:05:00,DRY,0.45,7.30,38.0,770.00,455.7
2019-01-25,10:10:00,DRY,1.33,7.20,38.0,770.00,474.0
2019-01-25,10:15:00,DRY,0.80,6.90,37.5,770.00,490.2
2019-01-25,10:20:00,DRY,1.03,6.67,38.7,770.00,507.3
2019-01-25,10:25:00,DRY,2.05,5.95,40.5,770.00,522.1
2019-01-25,10:30:00,DRY,2.13,5.70,39.7,770.00,537.7
2019-01-25,10:35:00,DRY,2.35,5.85,39.5,770.00,554.1
2019-01-25,10:40:00,DRY,2.70,5.70,42.7,770.00,568.5
2019-01-25,10:45:00,DRY,3.95,5.60,43.5,770.00,581.8
2019-01-25,10:50:00,DRY,3.43,5.63,42.3,770.00,595.8
2019-01-25,10:55:00,DRY,2.55,5.70,43.0,770.00,610.1
2019-01-25,11:00:00,DRY,2.40,5.87,40.7,770.00,622.7
2019-01-25,11:05:00,DRY,2.60,6.00,40.5,770.00,634.5
2019-01-25,11:10:00,DRY,2.30,5.90,41.0,770.00,646.8
2019-01-25,11:15:00,DRY,1.70,6.00,40.5,770.00,659.0
2019-01-25,11:20:00,DRY,2.30,6.07,40.0,770.00,670.7
2019-01-25,11:25:00,DRY,2.90,6.20,39.5,770.00,682.6
2019-01-25,11:30:00,DRY,2.43,6.27,38.7,770.00,692.6
2019-01-25,11:35:00,DRY,2.55,6.45,38.0,770.00,702.7
2019-01-25,11:40:00,DRY,2.33,6.30,40.0,770.00,712.2
2019-01-25,11:45:00,DRY,2.90,6.30,41.5,770.00,721.7
2019-01-25,11:50:00,DRY,3.53,6.33,43.0,770.00,730.8
2019-01-25,11:55:00,DRY,2.45,6.15,44.0,770.00,738.0
2019-01-25,12:00:00,DRY,2.23,6.50,41.3,770.00,746.9
2019-01-25,12:05:00,DRY,3.20,6.45,41.0,770.00,754.8
2019-01-25,12:10:00,DRY,2.67,6.43,39.7,770.00,762.6
2019-01-25,12:15:00,DRY,3.00,6.25,37.5,770.00,768.4
2019-01-25,12:20:00,DRY,2.00,6.47,36.7,770.00,775.9
2019-01-25,12:25:00,DRY,1.85,6.50,36.5,770.00,781.0
2019-01-25,12:30:00,DRY,1.63,6.50,39.3,770.00,784.6
2019-01-25,12:35:00,DRY,2.30,6.55,38.0,770.00,789.8
2019-01-25,12:40:00,DRY,2.57,6.63,39.0,770.00,795.7
2019-01-25,12:45:00,DRY,2.75,6.70,37.0,770.00,796.9
2019-01-25,12:50:00,DRY,2.70,6.60,38.0,770.00,801.2
2019-01-25,12:55:00,DRY,2.45,6.80,37.5,770.00,803.7
2019-01-25,13:00:00,DRY,2.50,7.00,37.0,770.00,805.8
2019-01-25,13:05:00,DRY,2.40,7.10,38.0,770.00,807.8
2019-01-25,13:10:00,DRY,2.20,7.07,38.7,770.00,807.9
2019-01-25,13:15:00,DRY,1.70,7.25,38.0,770.00,810.3
2019-01-25,13:20:00,DRY,2.47,7.30,38.3,770.00,809.5
2019-01-25,13:25:00,DRY,2.55,7.10,39.5,770.00,808.2
2019-01-25,13:30:00,DRY,2.40,7.10,39.0,770.00,808.2
2019-01-25,13:35:00,DRY,1.90,7.90,40.0,770.00,807.9
2019-01-25,13:40:00,DRY,2.83,7.67,37.7,770.00,805.4
2019-01-25,13:45:00,DRY,2.65,7.10,39.5,769.50,804.6
2019-01-25,13:50:00,DRY,2.90,7.20,39.3,769.33,801.3
2019-01-25,13:55:00,DRY,2.00,7.30,41.5,769.50,798.1
2019-01-25,14:00:00,DRY,2.80,7.13,42.3,769.67,795.9
2019-01-25,14:05:00,DRY,2.50,7.05,47.0,769.00,790.5
2019-01-25,14:10:00,DRY,2.90,7.00,49.3,769.00,784.8
2019-01-25,14:15:00,DRY,2.20,6.50,61.5,770.00,779.9
2019-01-25,14:20:00,DRY,1.90,6.30,62.3,769.33,776.1
2019-01-25,14:25:00,DRY,2.15,6.30,60.5,769.00,777.2
2019-01-25,14:30:00,DRY,2.43,6.47,54.7,769.00,768.7
2019-01-25,14:35:00,DRY,2.30,6.70,52.0,769.50,757.8
2019-01-25,14:40:00,DRY,2.17,6.80,55.7,769.00,748.9
2019-01-25,14:45:00,DRY,1.70,6.60,62.5,769.00,740.2
2019-01-25,14:50:00,DRY,2.77,6.57,48.0,769.00,732.4
2019-01-25,14:55:00,DRY,2.10,6.65,47.5,769.00,724.3
2019-01-25,15:00:00,DRY,1.97,6.93,37.0,769.00,715.7
2019-01-25,15:05:00,DRY,2.10,7.05,40.5,769.00,704.0
2019-01-25,15:10:00,DRY,2.37,6.83,36.0,769.00,694.5
2019-01-25,15:15:00,DRY,3.20,7.00,37.0,769.00,684.2
2019-01-25,15:20:00,DRY,2.73,7.00,36.0,769.00,672.7
2019-01-25,15:25:00,DRY,2.55,6.85,38.5,769.00,663.4
2019-01-25,15:30:00,DRY,1.83,7.07,40.0,769.00,649.4
2019-01-25,15:35:00,DRY,2.75,7.15,43.0,769.00,638.0
2019-01-25,15:40:00,DRY,2.07,6.70,43.7,769.00,625.5
2019-01-25,15:45:00,DRY,1.05,7.25,40.5,769.00,612.4
2019-01-25,15:50:00,DRY,2.67,6.67,48.7,769.00,595.7
2019-01-25,15:55:00,DRY,1.70,6.10,57.0,769.50,582.6
2019-01-25,16:00:00,DRY,1.73,5.77,66.3,769.33,566.9
2019-01-25,16:05:00,DRY,2.10,5.95,58.0,769.00,560.5
2019-01-25,16:10:00,DRY,1.87,5.83,63.0,769.33,538.8
2019-01-25,16:15:00,DRY,1.85,5.80,59.0,769.00,523.1
2019-01-25,16:20:00,DRY,1.83,5.87,55.0,769.00,506.1
2019-01-25,16:25:00,DRY,1.50,5.65,56.0,769.00,491.8
2019-01-25,16:30:00,DRY,1.90,5.67,54.3,769.00,475.2
2019-01-25,16:35:00,DRY,2.05,5.30,53.0,769.00,449.5
2019-01-25,16:40:00,DRY,1.53,5.40,51.7,769.00,441.5
2019-01-25,16:45:00,DRY,0.90,5.00,64.0,769.00,377.8
2019-01-25,16:50:00,DRY,1.63,4.97,69.7,769.33,311.7
2019-01-25,16:55:00,DRY,2.15,4.75,62.5,769.00,311.8
2019-01-25,17:00:00,DRY,1.50,4.97,49.7,769.00,376.6
2019-01-25,17:05:00,DRY,1.80,5.00,46.0,769.00,355.1
2019-01-25,17:10:00,DRY,2.50,4.90,36.0,769.00,335.9
2019-01-25,17:15:00,DRY,2.60,4.80,28.0,769.50,317.6
2019-01-25,17:20:00,DRY,1.97,4.73,29.7,769.00,234.8
2019-01-25,17:25:00,DRY,1.90,4.80,58.0,769.00,262.7
2019-01-25,17:30:00,DRY,1.03,3.80,72.0,769.67,34.3
2019-01-25,17:35:00,DRY,1.25,3.75,52.0,770.00,44.5
2019-01-25,17:40:00,DRY,1.67,4.03,51.3,769.67,221.3
2019-01-25,17:45:00,DRY,1.45,4.20,47.0,770.00,199.6
2019-01-25,17:50:00,DRY,1.87,4.10,46.3,770.00,180.2
2019-01-25,17:55:00,DRY,2.15,3.95,39.5,769.50,163.1
2019-01-25,18:00:00,DRY,2.13,3.87,41.7,769.67,144.5
2019-01-25,18:05:00,DRY,2.30,3.85,32.5,770.00,120.9
2019-01-25,18:10:00,DRY,3.07,3.97,28.0,770.00,97.1
2019-01-25,18:15:00,DRY,2.65,4.05,26.5,770.00,73.8
2019-01-25,18:20:00,DRY,2.27,4.10,26.0,770.00,55.3
2019-01-25,18:25:00,DRY,2.85,4.05,26.0,770.00,38.2
2019-01-25,18:30:00,DRY,3.37,4.07,24.7,770.00,25.2
2019-01-25,18:35:00,DRY,2.80,3.95,25.0,770.00,16.6
2019-01-25,18:40:00,DRY,2.23,4.07,23.7,770.00,12.9
2019-01-25,18:45:00,DRY,2.35,4.15,22.5,770.00,8.2
2019-01-25,18:50:00,DRY,2.97,3.93,23.0,770.00,5.3
2019-01-25,18:55:00,DRY,3.00,4.05,23.0,770.00,3.0
2019-01-25,19:00:00,DRY,2.87,4.00,23.3,770.00,2.0
2019-01-25,19:05:00,DRY,3.05,4.00,25.0,770.00,1.1
2019-01-25,19:10:00,DRY,3.17,3.93,25.0,770.00,1.2
2019-01-25,19:15:00,DRY,3.50,3.95,27.5,770.00,0.9
2019-01-25,19:20:00,DRY,2.37,3.97,22.0,770.00,1.5
2019-01-25,19:25:00,DRY,2.55,3.70,25.5,770.00,1.1
2019-01-25,19:30:00,DRY,2.20,3.97,24.0,770.00,1.2
2019-01-25,19:35:00,DRY,2.45,4.30,30.5,770.00,0.7
2019-01-25,19:40:00,DRY,2.60,3.97,28.7,770.00,0.7
2019-01-25,19:45:00,DRY,3.00,3.50,31.0,770.00,0.8
2019-01-25,19:50:00,DRY,1.83,3.97,34.0,770.00,1.6
2019-01-25,19:55:00,DRY,1.50,4.40,26.5,770.00,1.1
2019-01-25,20:00:00,DRY,1.17,4.13,33.7,770.00,0.8
2019-01-25,20:05:00,DRY,1.15,4.20,37.0,770.00,1.3
2019-01-25,20:10:00,DRY,1.47,4.23,35.0,770.00,1.1
2019-01-25,20:15:00,DRY,2.40,4.20,35.5,770.00,1.4
2019-01-25,20:20:00,DRY,1.80,4.20,35.0,770.00,1.4
2019-01-25,20:25:00,DRY,2.15,4.30,34.5,770.00,1.0
2019-01-25,20:30:00,DRY,1.70,4.33,34.3,770.00,1.1
2019-01-25,20:35:00,DRY,1.45,4.25,35.0,770.00,2.4
2019-01-25,20:40:00,DRY,0.87,4.47,37.7,770.00,1.4
2019-01-25,20:45:00,DRY,0.80,4.50,36.5,770.00,1.6
2019-01-25,20:50:00,DRY,1.70,4.07,35.0,770.33,1.3
2019-01-25,20:55:00,DRY,1.85,4.25,35.0,770.50,2.0
2019-01-25,21:00:00,DRY,1.37,4.23,35.0,771.00,1.0
2019-01-25,21:05:00,DRY,0.35,4.35,36.0,771.00,1.2
2019-01-25,21:10:00,DRY,0.67,4.63,37.3,771.00,0.9
2019-01-25,21:15:00,DRY,0.55,4.55,37.0,771.00,0.5
2019-01-25,21:20:00,DRY,0.40,4.23,37.7,771.00,1.3
2019-01-25,21:25:00,DRY,0.20,4.15,38.0,771.00,1.6
2019-01-25,21:30:00,DRY,0.87,4.40,37.3,770.67,1.8
2019-01-25,21:35:00,DRY,0.70,4.55,36.5,771.00,1.3
2019-01-25,21:40:00,DRY,1.00,4.57,36.7,771.00,0.7
2019-01-25,21:45:00,DRY,1.80,4.70,33.0,771.00,1.6
2019-01-25,21:50:00,DRY,1.57,4.33,38.7,771.00,0.3
2019-01-25,21:55:00,DRY,1.20,4.75,36.5,771.00,1.2
2019-01-25,22:00:00,DRY,1.10,5.13,34.7,771.00,2.0
2019-01-25,22:05:00,DRY,0.85,4.95,36.5,771.00,0.8
2019-01-25,22:10:00,DRY,0.83,4.33,37.3,771.00,1.4
2019-01-25,22:15:00,DRY,1.45,4.15,35.0,771.00,1.2
2019-01-25,22:20:00,DRY,0.70,4.10,36.0,771.00,0.9
2019-01-25,22:25:00,DRY,0.30,4.20,36.0,771.00,0.7
2019-01-25,22:30:00,DRY,0.83,4.30,34.7,771.00,1.7
2019-01-25,22:35:00,DRY,1.50,4.85,35.0,771.00,1.1
2019-01-25,22:40:00,DRY,1.30,4.87,36.0,771.00,2.1
2019-01-25,22:45:00,DRY,1.35,5.10,37.0,771.00,1.2
2019-01-25,22:50:00,DRY,1.67,5.20,36.0,771.00,1.2
2019-01-25,22:55:00,DRY,1.85,5.00,37.0,771.00,0.8
2019-01-25,23:00:00,DRY,1.17,5.07,33.0,771.00,1.4
2019-01-25,23:05:00,DRY,1.55,5.25,28.5,771.00,0.3
2019-01-25,23:10:00,DRY,1.97,5.07,30.3,771.00,1.9
2019-01-25,23:15:00,DRY,1.75,5.15,28.5,771.00,1.2
2019-01-25,23:20:00,DRY,1.63,5.30,30.3,771.00,0.8
2019-01-25,23:25:00,DRY,1.90,4.85,35.0,771.00,2.4
2019-01-25,23:30:00,DRY,1.90,4.90,34.0,771.00,2.4
2019-01-25,23:35:00,DRY,1.75,5.00,30.0,771.00,1.5
2019-01-25,23:40:00,DRY,1.23,5.37,31.0,771.00,1.1
2019-01-25,23:45:00,DRY,0.45,5.25,31.0,771.00,0.6
2019-01-25,23:50:00,DRY,0.20,4.80,32.0,771.00,1.2
2019-01-25,23:55:00,DRY,0.35,4.50,33.0,771.00,1.2
2019-01-26,00:00:00,DRY,0.47,4.53,33.0,771.00,0.9
2019-01-26,00:05:00,DRY,0.60,5.00,33.0,771.00,1.3
2019-01-26,00:10:00,DRY,0.73,5.13,32.7,771.00,1.2
2019-01-26,00:15:00,DRY,1.65,4.90,32.5,771.00,0.1
2019-01-26,00:20:00,DRY,2.17,4.13,35.7,771.00,2.7
2019-01-26,00:25:00,DRY,2.10,3.70,36.0,771.00,2.3
2019-01-26,00:30:00,DRY,1.47,3.87,34.0,771.00,1.2
2019-01-26,00:35:00,DRY,0.95,4.55,31.5,771.00,0.8
2019-01-26,00:40:00,DRY,0.87,4.60,31.7,771.00,1.4
2019-01-26,00:45:00,DRY,1.05,4.65,33.0,771.00,1.4
2019-01-26,00:50:00,DRY,1.03,4.47,33.7,771.00,0.6
2019-01-26,00:55:00,DRY,1.90,4.45,33.0,771.00,0.8
2019-01-26,01:00:00,DRY,2.93,3.87,34.0,771.00,1.4
2019-01-26,01:05:00,DRY,3.15,3.55,35.5,771.00,1.8
2019-01-26,01:10:00,DRY,2.87,3.60,35.7,771.00,1.0
2019-01-26,01:15:00,DRY,2.65,3.60,36.0,771.00,1.4
2019-01-26,01:20:00,DRY,2.70,3.43,35.3,771.00,1.5
2019-01-26,01:25:00,DRY,2.95,3.45,36.0,771.00,0.8
2019-01-26,01:30:00,DRY,2.90,3.57,36.3,771.00,1.0
2019-01-26,01:35:00,DRY,3.00,3.50,34.5,771.00,1.6
2019-01-26,01:40:00,DRY,2.73,3.73,31.3,771.00,1.1
2019-01-26,01:45:00,DRY,2.35,3.70,29.5,771.00,1.1
2019-01-26,01:50:00,DRY,2.43,3.53,29.0,771.00,0.7
2019-01-26,01:55:00,DRY,2.75,3.65,29.5,771.00,1.7
2019-01-26,02:00:00,DRY,3.33,3.50,30.3,771.00,0.6
2019-01-26,02:05:00,DRY,3.05,3.65,30.5,771.00,1.1
2019-01-26,02:10:00,DRY,3.43,3.63,33.0,771.00,1.1
2019-01-26,02:15:00,DRY,3.40,3.60,33.5,771.00,0.9
2019-01-26,02:20:00,DRY,3.65,3.55,34.0,771.00,0.7
2019-01-26,02:25:00,DRY,3.30,3.60,34.0,771.00,1.6
2019-01-26,02:30:00,DRY,2.87,3.70,32.7,771.00,1.2
2019-01-26,02:35:00,DRY,3.10,3.50,35.0,771.00,1.1
2019-01-26,02:40:00,DRY,3.00,3.50,32.3,771.00,1.9
2019-01-26,02:45:00,DRY,2.70,3.60,30.5,771.00,1.8
2019-01-26,02:50:00,DRY,2.47,3.50,29.7,770.67,1.3
2019-01-26,02:55:00,DRY,1.65,3.95,27.0,770.50,0.4
2019-01-26,03:00:00,DRY,2.23,3.93,27.3,771.00,1.5
2019-01-26,03:05:00,DRY,2.50,3.70,28.0,770.00,1.4
2019-01-26,03:10:00,DRY,2.57,3.53,29.3,771.00,1.3
2019-01-26,03:15:00,DRY,2.30,3.45,29.0,770.50,1.2
2019-01-26,03:20:00,DRY,2.73,3.43,29.7,770.67,0.9
2019-01-26,03:25:00,DRY,2.35,3.20,31.0,770.50,1.1
2019-01-26,03:30:00,DRY,1.83,3.57,29.7,770.33,1.9
2019-01-26,03:35:00,DRY,1.35,4.25,27.0,770.00,1.0
2019-01-26,03:40:00,DRY,2.27,4.50,28.3,770.00,1.2
2019-01-26,03:45:00,DRY,1.90,4.50,29.0,770.00,0.7
2019-01-26,03:50:00,DRY,1.67,4.43,29.7,770.00,1.2
2019-01-26,03:55:00,DRY,1.85,4.40,30.0,770.00,0.9
2019-01-26,04:00:00,DRY,1.80,4.23,30.0,770.00,0.7
2019-01-26,04:05:00,DRY,1.55,4.45,30.0,770.00,1.4
2019-01-26,04:10:00,DRY,2.80,4.43,29.3,770.00,1.2
2019-01-26,04:15:00,DRY,2.70,4.70,29.0,770.00,2.0
2019-01-26,04:20:00,DRY,2.53,4.57,29.0,770.00,0.6
2019-01-26,04:25:00,DRY,2.35,4.40,28.0,770.00,1.5
2019-01-26,04:30:00,DRY,2.47,4.50,27.3,770.00,1.3
2019-01-26,04:35:00,DRY,2.45,4.50,28.5,770.00,0.9
2019-01-26,04:40:00,DRY,3.00,4.57,28.3,770.00,0.7
2019-01-26,04:45:00,DRY,2.50,4.45,29.0,770.00,0.8
2019-01-26,04:50:00,DRY,2.03,4.73,28.3,770.00,2.0
2019-01-26,04:55:00,DRY,2.20,4.85,28.5,770.00,0.7
2019-01-26,05:00:00,DRY,2.60,4.90,25.7,770.00,1.0
2019-01-26,05:05:00,DRY,2.50,4.85,24.5,770.00,0.7
2019-01-26,05:10:00,DRY,2.60,4.67,24.7,770.00,1.9
2019-01-26,05:15:00,DRY,2.20,4.40,24.0,770.00,1.6
2019-01-26,05:20:00,DRY,2.20,4.33,25.3,770.00,0.7
2019-01-26,05:25:00,DRY,2.20,4.45,25.5,770.00,0.9
2019-01-26,05:30:00,DRY,2.60,4.50,24.0,770.33,1.1
2019-01-26,05:35:00,DRY,3.00,4.75,21.5,770.00,1.0
2019-01-26,05:40:00,DRY,3.20,4.63,23.0,770.00,1.3
2019-01-26,05:45:00,DRY,3.25,4.85,25.5,771.00,1.0
2019-01-26,05:50:00,DRY,1.80,4.77,26.7,770.33,1.3
2019-01-26,05:55:00,DRY,1.85,4.40,28.0,770.50,1.0
2019-01-26,06:00:00,DRY,2.00,4.60,28.0,770.67,0.8
2019-01-26,06:05:00,DRY,1.85,4.60,28.0,771.00,1.1
2019-01-26,06:10:00,DRY,1.80,4.37,27.0,771.00,1.5
2019-01-26,06:15:00,DRY,3.35,4.95,25.5,771.00,1.8
2019-01-26,06:20:00,DRY,1.83,4.97,24.7,771.00,1.3
2019-01-26,06:25:00,DRY,2.25,4.45,26.0,771.00,1.1
2019-01-26,06:30:00,DRY,1.73,4.67,25.7,771.00,1.0
2019-01-26,06:35:00,DRY,2.60,4.45,26.0,771.00,0.7
2019-01-26,06:40:00,DRY,2.03,3.60,28.0,771.00,1.3
2019-01-26,06:45:00,DRY,2.00,4.00,26.0,771.00,0.3
2019-01-26,06:50:00,DRY,2.03,4.63,23.3,771.00,1.2
2019-01-26,06:55:00,DRY,2.40,5.20,21.0,771.00,1.5
2019-01-26,07:00:00,DRY,1.97,5.23,19.7,771.00,1.6
2019-01-26,07:05:00,DRY,1.05,4.95,22.5,771.00,1.1
2019-01-26,07:10:00,DRY,2.07,4.63,23.7,771.00,1.0
2019-01-26,07:15:00,DRY,2.00,4.50,24.0,771.00,1.1
2019-01-26,07:20:00,DRY,1.93,4.47,24.0,771.00,0.8
2019-01-26,07:25:00,DRY,2.15,4.55,24.0,771.00,0.6
2019-01-26,07:30:00,DRY,1.17,4.53,24.3,771.00,0.9
2019-01-26,07:35:00,DRY,1.50,4.60,25.0,771.00,0.5
2019-01-26,07:40:00,DRY,2.37,4.87,25.0,771.00,1.0
2019-01-26,07:45:00,DRY,2.95,4.75,25.0,771.00,1.2
2019-01-26,07:50:00,DRY,2.37,4.70,24.0,771.00,1.6
2019-01-26,07:55:00,DRY,2.65,4.50,24.0,771.00,3.6
2019-01-26,08:00:00,DRY,2.85,4.60,24.0,771.00,5.2
2019-01-26,08:05:00,DRY,1.60,4.55,24.0,771.00,7.0
2019-01-26,08:10:00,DRY,2.10,4.43,24.3,771.33,10.1
2019-01-26,08:15:00,DRY,2.00,4.40,25.0,771.00,12.8
2019-01-26,08:20:00,DRY,2.00,4.47,25.0,772.00,14.5
2019-01-26,08:25:00,DRY,3.25,4.55,26.0,772.00,16.2
2019-01-26,08:30:00,DRY,1.23,4.67,26.0,771.67,19.0
2019-01-26,08:35:00,DRY,1.75,4.70,26.0,772.00,18.9
2019-01-26,08:40:00,DRY,1.10,5.20,25.7,772.00,95.8
2019-01-26,08:45:00,DRY,1.65,5.20,25.5,772.00,158.3
2019-01-26,08:50:00,DRY,1.53,5.33,25.7,772.00,176.6
2019-01-26,08:55:00,DRY,1.00,5.65,26.0,772.00,196.3
2019-01-26,09:00:00,DRY,2.60,5.77,26.7,772.00,216.4
2019-01-26,09:05:00,DRY,0.70,5.80,27.0,772.00,237.5
2019-01-26,09:10:00,DRY,1.33,5.83,27.0,772.00,255.3
2019-01-26,09:15:00,DRY,1.90,5.75,27.0,772.00,273.9
2019-01-26,09:20:00,DRY,0.70,5.83,27.0,772.00,293.2
2019-01-26,09:25:00,DRY,1.50,6.00,27.0,772.00,311.3
2019-01-26,09:30:00,DRY,1.50,5.97,27.7,772.00,331.6
2019-01-26,09:35:00,DRY,2.30,6.00,28.0,772.00,350.4
2019-01-26,09:40:00,DRY,1.90,5.63,27.7,772.00,369.2
2019-01-26,09:45:00,DRY,2.45,5.10,28.0,772.00,388.2
2019-01-26,09:50:00,DRY,1.90,5.13,27.7,772.00,406.1
2019-01-26,09:55:00,DRY,1.90,5.35,27.0,772.00,424.5
2019-01-26,10:00:00,DRY,1.83,5.30,28.3,772.00,441.4
2019-01-26,10:05:00,DRY,0.90,5.85,28.0,772.00,458.6
2019-01-26,10:10:00,DRY,1.03,6.40,28.0,772.00,476.3
2019-01-26,10:15:00,DRY,2.65,6.50,28.0,772.00,492.5
2019-01-26,10:20:00,DRY,3.20,6.30,29.0,772.00,508.3
2019-01-26,10:25:00,DRY,3.80,6.05,30.5,772.00,524.5
2019-01-26,10:30:00,DRY,3.83,6.27,30.7,772.00,540.2
2019-01-26,10:35:00,DRY,1.25,6.30,33.0,772.00,556.2
2019-01-26,10:40:00,DRY,2.10,6.27,33.3,772.00,570.5
2019-01-26,10:45:00,DRY,2.10,6.40,32.5,772.00,584.0
2019-01-26,10:50:00,DRY,2.40,6.43,30.3,772.00,597.9
2019-01-26,10:55:00,DRY,2.35,6.70,31.0,772.00,611.3
2019-01-26,11:00:00,DRY,2.77,6.63,31.0,772.00,623.8
2019-01-26,11:05:00,DRY,4.40,6.70,29.5,772.00,637.5
2019-01-26,11:10:00,DRY,3.50,6.80,31.3,772.00,649.1
2019-01-26,11:15:00,DRY,2.95,6.35,48.0,773.00,660.6
2019-01-26,11:20:00,DRY,1.57,6.53,47.3,773.00,673.3
2019-01-26,11:25:00,DRY,1.15,6.60,39.5,773.00,685.3
2019-01-26,11:30:00,DRY,0.87,6.87,41.0,773.00,695.1
2019-01-26,11:35:00,DRY,2.05,6.50,50.0,773.00,706.8
2019-01-26,11:40:00,DRY,1.67,6.00,49.3,773.00,716.0
2019-01-26,11:45:00,DRY,0.75,6.75,46.5,773.00,726.6
2019-01-26,11:50:00,DRY,1.57,7.47,40.3,773.00,737.9
2019-01-26,11:55:00,DRY,0.90,6.65,57.0,773.00,748.0
2019-01-26,12:00:00,DRY,0.77,5.13,63.7,773.00,744.4
2019-01-26,12:05:00,DRY,0.75,5.00,56.5,773.00,764.5
2019-01-26,12:10:00,DRY,1.10,6.17,55.0,772.67,769.9
2019-01-26,12:15:00,DRY,1.50,6.45,65.5,773.00,788.3
2019-01-26,12:20:00,DRY,1.20,4.27,83.0,772.33,826.0
2019-01-26,12:25:00,DRY,1.20,4.25,82.5,772.00,603.8
2019-01-26,12:30:00,DRY,1.17,4.20,83.0,772.00,739.6
2019-01-26,12:35:00,DRY,1.30,4.30,83.5,772.00,823.9
2019-01-26,12:40:00,DRY,1.47,5.03,70.0,772.00,805.2
2019-01-26,12:45:00,DRY,1.40,6.00,63.0,772.00,803.7
2019-01-26,12:50:00,DRY,1.50,6.43,44.7,772.33,806.5
2019-01-26,12:55:00,DRY,1.70,6.75,52.5,772.00,809.7
2019-01-26,13:00:00,DRY,1.40,6.80,36.7,772.00,810.2
2019-01-26,13:05:00,DRY,1.75,6.45,66.5,772.00,811.1
2019-01-26,13:10:00,DRY,1.83,5.70,74.0,772.00,810.3
2019-01-26,13:15:00,DRY,1.50,5.50,73.0,772.00,809.4
2019-01-26,13:20:00,DRY,1.43,5.13,70.3,772.00,811.1
2019-01-26,13:25:00,DRY,0.95,5.75,66.5,772.00,811.9
2019-01-26,13:30:00,DRY,1.20,5.90,63.0,772.00,818.1
2019-01-26,13:35:00,DRY,1.00,6.00,47.0,772.00,812.1
2019-01-26,13:40:00,DRY,1.23,6.87,43.0,772.00,810.4
2019-01-26,13:45:00,DRY,1.55,6.15,65.0,772.00,805.5
2019-01-26,13:50:00,DRY,1.53,5.77,63.0,772.00,801.7
2019-01-26,13:55:00,DRY,1.65,5.85,62.0,772.00,800.1
2019-01-26,14:00:00,DRY,0.90,6.00,54.0,772.00,794.2
2019-01-26,14:05:00,DRY,0.45,6.45,51.5,772.00,791.0
2019-01-26,14:10:00,DRY,0.83,7.20,58.7,772.00,789.0
2019-01-26,14:15:00,DRY,1.10,6.90,67.5,772.00,650.1
2019-01-26,14:20:00,DRY,1.97,5.43,79.7,772.00,812.3
2019-01-26,14:25:00,DRY,1.85,6.75,66.5,772.00,773.6
2019-01-26,14:30:00,DRY,0.97,6.63,56.0,772.00,767.5
2019-01-26,14:35:00,DRY,0.40,7.00,59.0,772.00,759.5
2019-01-26,14:40:00,DRY,1.57,6.90,67.7,772.00,753.5
2019-01-26,14:45:00,DRY,1.85,5.10,77.5,772.00,743.9
2019-01-26,14:50:00,DRY,1.37,5.43,71.7,772.00,747.2
2019-01-26,14:55:00,DRY,1.75,5.80,62.0,772.00,768.0
2019-01-26,15:00:00,DRY,0.85,5.75,59.5,772.00,616.0
2019-01-26,15:05:00,DRY,0.85,5.65,67.5,772.00,356.1
2019-01-26,15:10:00,DRY,1.07,5.73,78.3,772.00,650.4
2019-01-26,15:15:00,DRY,1.05,6.45,75.5,772.00,694.1
2019-01-26,15:20:00,DRY,0.83,6.17,46.3,772.00,676.2
2019-01-26,15:25:00,DRY,1.70,6.65,33.0,772.00,665.8